Orebro current weather conditions

sailwx.info

Wind from 100 at 14 knots

Air temperature 9.0° C
Visibility: greater than 5.4 NM
Dewpoint -0.0° C
Present weather: Showers in the vicinity.

Last reported at 2017-Apr-28 16:50 UTC.
Time now 2017-Apr-28 18:00 UTC

Location: N 59°13' E 015°02'.
View on Google Maps.

See reports from other nearby stations

  
Tides and Currents Weather Stations Pressure Air Temp Water Temp Dewpoint Dewpoint Depression Visibility Wind Speed Wind Dir Waves Ship Positions
date/time (UTC)wind fromknots sea level pressurealtimeterstation pressurevisibilityair tempwater tempwave heightnotes
2017-Apr-28 16:50 100 14 5.4 9.0 Showers in the vicinity.
2017-Apr-28 16:20 090 15 5.4 9.0
2017-Apr-28 15:50 080 13 5.4 9.0 Showers in the vicinity.
2017-Apr-28 15:20 090 18 5.4 9.0 Showers in the vicinity.
2017-Apr-28 14:50 080 18 5.410.0 Showers in the vicinity.
2017-Apr-28 14:20 080 17 5.410.0 Showers in the vicinity.
2017-Apr-28 13:50 080 17 5.410.0 Showers in the vicinity.
2017-Apr-28 13:20 070 17 5.410.0 Showers in the vicinity.
2017-Apr-28 12:50 090 17 5.410.0
2017-Apr-28 12:20 080 17 5.411.0 Showers in the vicinity.
2017-Apr-28 11:50 090 18 5.411.0 Showers in the vicinity.
2017-Apr-28 11:20 100 15 5.411.0 Showers in the vicinity.
2017-Apr-28 10:50 050 15 5.410.0
2017-Apr-28 10:20 050 13 5.4 9.0
2017-Apr-28 09:50 070 9 5.4 8.0
2017-Apr-28 09:20 060 9 5.4 7.0
2017-Apr-28 08:50 080 8 5.4 5.0
2017-Apr-28 08:20 080 8 5.4 4.0
2017-Apr-28 07:50 090 9 5.4 3.0
2017-Apr-28 07:20 060 9 3.2 2.0 Mist.
2017-Apr-28 06:50 060 9 5.4 3.0
2017-Apr-28 06:20 060 7 5.4 3.0
2017-Apr-28 05:50 050 6 5.4 2.0
2017-Apr-28 05:20 040 7 5.4 2.0
2017-Apr-28 04:50 010 7 5.4 1.0
2017-Apr-28 04:20 030 8 5.4 1.0
2017-Apr-28 03:50 030 7 5.4-0.0
2017-Apr-28 03:20 020 7 5.4-0.0
2017-Apr-28 02:50 030 6 5.4-0.0
2017-Apr-28 02:20 010 5 5.4-0.0
2017-Apr-28 01:50 030 6 5.4 1.0
2017-Apr-28 01:20 020 6 5.4 1.0
2017-Apr-28 00:50 010 6 5.4 1.0
2017-Apr-28 00:20 040 6 5.4 2.0
2017-Apr-27 23:50 340 6 5.4 3.0
2017-Apr-27 23:20 320 4 5.4 3.0 Light drizzle.
2017-Apr-27 22:50 360 4 5.4 3.0 Light rain.
2017-Apr-27 22:20 020 4 5.4 3.0
2017-Apr-27 21:50 040 4 5.4 3.0
2017-Apr-27 21:20 040 4 5.4 3.0
2017-Apr-27 20:50 010 6 5.4 3.0
2017-Apr-27 20:20 360 4 5.4 4.0
2017-Apr-27 19:50 020 6 5.4 4.0
2017-Apr-27 19:20 020 4 5.4 4.0
2017-Apr-27 18:50 030 5 5.4 5.0
2017-Apr-27 18:20 030 8 5.4 5.0
2017-Apr-27 17:50 200 4 5.4 7.0
2017-Apr-27 17:20 340 6 5.4 7.0
2017-Apr-27 16:50 020 7 5.4 6.0
2017-Apr-27 16:20 350 4 5.4 7.0 Light drizzle.
2017-Apr-27 15:50 210 13 5.4 8.0
2017-Apr-27 15:20 5.4 9.0
2017-Apr-27 14:50 090 6 5.4 9.0
2017-Apr-27 14:20 110 4 5.4 9.0
2017-Apr-27 13:50 140 6 5.4 8.0 Showers in the vicinity.
2017-Apr-27 13:20 160 9 5.4 7.0 Showers in the vicinity.
2017-Apr-27 12:50 5.4 8.0 Showers in the vicinity.
2017-Apr-27 12:20 070 4 5.4 8.0 Showers in the vicinity.
2017-Apr-27 11:50 040 5 5.4 7.0 Light drizzle.
2017-Apr-27 11:20 010 5 5.4 5.0
2017-Apr-27 10:50 060 6 5.4 5.0 Small hail/snow pellets.
2017-Apr-27 10:20 5.4 6.0 Showers in the vicinity.
2017-Apr-27 09:50 210 6 gusting 20 5.4 8.0 Light rain showers. Small hail/snow pellets.
2017-Apr-27 09:20 240 7 5.4 8.0
2017-Apr-27 08:50 270 6 5.4 8.0
2017-Apr-27 08:20 220 6 5.4 7.0
2017-Apr-27 07:50 220 6 5.4 6.0
2017-Apr-27 07:20 250 4 5.4 6.0
2017-Apr-27 06:50 220 5 5.4 5.0
2017-Apr-27 06:20 220 6 5.4 4.0
2017-Apr-27 05:50 220 5 5.4 3.0
2017-Apr-27 05:20 230 5 5.4 2.0
2017-Apr-27 04:50 240 6 5.4 1.0
2017-Apr-27 04:20 240 6 5.4-0.0
2017-Apr-27 03:50 230 6 5.4-0.0
2017-Apr-27 02:50 230 8 5.4-1.0
2017-Apr-27 02:20 240 8 5.4-0.0
2017-Apr-27 01:50 240 8 5.4-0.0
2017-Apr-27 01:20 240 6 5.4-0.0
2017-Apr-27 00:50 240 6 5.4-1.0
2017-Apr-27 00:20 230 7 5.4-1.0
2017-Apr-26 23:50 230 6 5.4-1.0
2017-Apr-26 23:20 230 4 5.4-1.0
2017-Apr-26 22:50 220 5 5.4-1.0
2017-Apr-26 22:20 210 5 5.4-1.0
2017-Apr-26 21:50 220 5 5.4-0.0
2017-Apr-26 21:20 240 5 5.4 1.0
2017-Apr-26 20:50 250 6 5.4 1.0
2017-Apr-26 20:20 240 6 5.4 1.0
2017-Apr-26 19:50 250 6 5.4 2.0
2017-Apr-26 19:20 220 5 5.4 3.0
2017-Apr-26 18:50 210 6 5.4 4.0
2017-Apr-26 18:20 240 14 5.4 5.0